Lexington Weather

Lexington, Massachusetts, USA

40°F
11/27/2020 3:02am 
  • Lexington Conditions: Fog, Overcast
  • Temperature: 39.9°F / 4.4°CColder 0.2°F than last hour.
  • Dew Point: 39.2°FDecreased 0.2°Fsince last hour.
  • Relative Humidity: 97
  • Wind: Calm, 10-min avg: Calm, gust: None
  • Barometer: 29.97 in Steady
  • Visibility: ¼ mile
  • Rain Today: 0.00 in
  •   
Southeast Middlesex County - Special Weather Statement
 - SEE ALL NEARBY ALERTS -

Regional Weather Roundup
for Boston / Norton, MA

        
000
ASUS41 KBOX 232204
RWRBOX

REGIONAL WEATHER ROUNDUP
NATIONAL WEATHER SERVICE BOSTON/NORTON MA
500 PM EST MON NOV 23 2020

NOTE:  "FAIR" INDICATES FEW OR NO CLOUDS BELOW 12,000 FEET WITH NO 
SIGNIFICANT WEATHER AND/OR OBSTRUCTIONS TO VISIBILITY.

MAZALL-232300-
EASTERN MASSACHUSETTS
  
CITY           SKY/WX    TMP DP  RH WIND       PRES   REMARKS
BOSTON         MOCLDY    44  34  67 W17G25    29.86R                  
BEVERLY        PTCLDY    45  36  70 W13       29.83R                  
LAWRENCE       CLEAR     44  35  70 W13G22    29.86R                  
BEDFORD        PTCLDY    44  34  67 NW10G21   29.85R                  
BLUE HILL        N/A     40  34  79 W17G25    29.83R WCI  31          
NORWOOD        CLEAR     45  33  63 W8        29.86R                  
MARSHFIELD     MOCLDY    46  37  71 W10G18    29.84R                  
PLYMOUTH       PTCLDY    44  35  70 W15G24    29.84R                  
TAUNTON        PTCLDY    45  34  65 W8        29.87R                  
NEW BEDFORD    PTCLDY    45  34  65 NW10G18   29.86R                  
$$

MAZALL-232300-
CAPE COD AND THE ISLANDS
  
CITY           SKY/WX    TMP DP  RH WIND       PRES   REMARKS
FALMOUTH       MOCLDY    45  39  81 NW18G28   29.83R                  
HYANNIS        CLOUDY    46  41  82 NW12G22   29.81R                  
CHATHAM        LGT RAIN  47  43  86 NW12G25   29.81R                  
NANTUCKET      CLOUDY    50  45  83 W17G25    29.83R                  
MARTHAS VNYRD  MOCLDY    46  35  65 NW22G33   29.85R                  
$$
 
MAZALL-232300-
CENTRAL AND WESTERN MASSACHUSETTS
  
CITY           SKY/WX    TMP DP  RH WIND       PRES   REMARKS
WORCESTER      CLEAR     38  28  67 W28G40    29.85R WCI  26          
FITCHBURG      CLEAR     42  32  67 NW9       29.89R                  
ORANGE         CLEAR     39  29  67 NW13      29.94R WCI  31          
SPRINGFIELD    PTCLDY    40  26  59 NW15G25   29.96R WCI  31          
WESTFIELD      CLEAR     40  27  59 NW17G31   29.96R WCI  31          
NORTH ADAMS    CLOUDY    38  28  67 W14       30.00R WCI  30          
PITTSFIELD     CLOUDY    35  27  72 NW15G26   29.98R WCI  25          
$$
 
RIZALL-232300-
RHODE ISLAND
  
CITY           SKY/WX    TMP DP  RH WIND       PRES   REMARKS
PROVIDENCE     MOCLDY    44  32  62 NW12G23   29.90R                  
NEWPORT        CLEAR     43  33  68 NW20G26   29.89R                  
BLOCK ISLAND   CLEAR     43  29  57 NW22G31   29.93R                  
SMITHFIELD     CLEAR     41  31  67 NW17G25   29.89R                  
WESTERLY       CLEAR     43  28  55 NW17G26   29.93R                  
$$
 
CTZALL-232300-
CONNECTICUT
  
CITY           SKY/WX    TMP DP  RH WIND       PRES   REMARKS
BRADLEY INTL   PTCLDY    41  27  57 NW18G28   29.98R                  
HARTFORD       PTCLDY    43  27  53 NW14G22   30.00R                  
BRIDGEPORT     CLEAR     45  27  49 NW18G25   30.00R                  
DANBURY        CLEAR     42  26  53 NW12G22   30.03R                  
GROTON         CLEAR     43  28  55 NW22G40   29.95R                  
NEW HAVEN      CLEAR     47  29  49 NW13G23   29.99R                  
CHESTER        FAIR      41  28  60 NW14G24   29.97R                  
MERIDEN        CLEAR     43  28  55 NW10      29.99R                  
WILLIMANTIC    CLEAR     41  27  57 NW15G26   29.97R                  
OXFORD         PTCLDY    41  27  57 NW15G23   29.99R                  
$$

MEZ002-015-021-024-NHZ003-005-008-011-012-014-VTZ005-008-232300-
NORTHERN NEW ENGLAND
  
CITY           SKY/WX    TMP DP  RH WIND       PRES   REMARKS
PORTLAND ME    PTCLDY    42  35  76 NW14      29.77R                  
BANGOR ME      LGT RAIN  44  40  85 NW14G23   29.68R                  
CONCORD NH     CLOUDY    41  31  67 NW8G22    29.86R                  
MANCHESTER NH  PTCLDY    44  31  60 W13G21    29.85R                  
NASHUA NH      PTCLDY    42  32  67 NW22G30   29.88R                  
PORTSMOUTH NH  PTCLDY    43  32  65 NW17G29   29.80R                  
JAFFREY NH     CLEAR     39  26  59 NW10G17   29.88R                  
KEENE NH       CLEAR     40  28  62 NW16      29.93R WCI  31          
BURLINGTON VT  CLOUDY    36  25  64 NW14      30.01R WCI  27          
MT. WASHINGTON FOG       14  14 100 W69         N/A  VSB 0   WCI -14  
$$

NYZ052-076-232300-
EASTERN NEW YORK
  
CITY           SKY/WX    TMP DP  RH WIND       PRES   REMARKS
ALBANY         PTCLDY    36  28  73 NW16G22   30.05R WCI  26          
NEW YORK CITY  PTCLDY    47  27  45 NW18G32   30.06R                  
$$
 
ANZALL-232300-
MARINE OBSERVATIONS
  
STATION/POSITION TIME  TEMP    WIND        PRES    VSBY  WAVE
                       AIR SEA DIR/SP/G                  HT/PER
                 (UTC) (F)     (DEG/KT/KT) (MB)    (MI)  (FT/S)
BOSTON BUOY      2150   47 50  290/ 19/ 27 1010.2R         5/ 7
BUZZARDS BAY     2100          310/ 29/ 32 1011.3R
NANTUCKET SOUND  2150      52  310/ 25/ 31   N/A           3/ 4
MASS BAY-STELLWA NOT AVBL
ISLE OF SHOALS   2100   45     290/ 26/ 30 1007.5R
S OF BLOCK IS    2126      57                N/A           7/ 6
$$

......................KEY.........................
  SKY/WX - SKY CONDITION/PRESENT WEATHER
  TMP    - TEMPERATURE IN FAHRENHEIT
  DWPT   - DEWPOINT IN FAHRENHEIT
  RH     - RELATIVE HUMIDITY IN PERCENT
  WIND   - DIRECTION AND SPEED IN MPH
  PRES   - MEAN SEA LEVEL PRESSURE IN INCHES OF HG
  WCI    - WIND CHILL INDEX
  VSB    - VISIBILITY IN MILES
  HX     - HEAT INDEX
  TC     - TEMPERATURE IN CELSIUS
  VRB    - VARIABLE WIND DIRECTION
  N/A    - NOT AVAILABLE
  
      

Other recent Regional Weather Roundups

Thu Nov 26, 11:04pm

Thu Nov 26, 10:04pm

Thu Nov 26, 9:04pm

Thu Nov 26, 8:04pm

Thu Nov 26, 7:04pm

Thu Nov 26, 6:04pm

Thu Nov 26, 5:04pm

Thu Nov 26, 4:04pm

Thu Nov 26, 2:04pm

Thu Nov 26, 1:04pm

Thu Nov 26, 12:04pm

Thu Nov 26, 11:04am

Thu Nov 26, 10:04am

Thu Nov 26, 9:04am

Thu Nov 26, 8:04am

Thu Nov 26, 7:04am

Thu Nov 26, 6:04am

Thu Nov 26, 5:04am

Thu Nov 26, 4:04am

Thu Nov 26, 3:04am

Thu Nov 26, 2:04am

Thu Nov 26, 1:04am

Thu Nov 26, 12:04am

Wed Nov 25, 11:04pm

Wed Nov 25, 10:04pm

Wed Nov 25, 9:04pm

Wed Nov 25, 8:04pm

Wed Nov 25, 7:04pm

Wed Nov 25, 6:04pm

Wed Nov 25, 5:04pm

Wed Nov 25, 4:04pm

Wed Nov 25, 3:05pm

Wed Nov 25, 2:04pm

Wed Nov 25, 1:04pm

Wed Nov 25, 12:05pm

Wed Nov 25, 11:04am

Wed Nov 25, 10:04am

Wed Nov 25, 9:04am

Wed Nov 25, 8:04am

Wed Nov 25, 7:04am

Wed Nov 25, 6:04am

Wed Nov 25, 5:04am

Wed Nov 25, 4:04am

Wed Nov 25, 3:04am

Wed Nov 25, 2:04am

Wed Nov 25, 1:04am

Wed Nov 25, 12:04am

Tue Nov 24, 11:04pm

Tue Nov 24, 10:04pm

Tue Nov 24, 9:04pm

Tue Nov 24, 8:04pm

Tue Nov 24, 7:04pm

Tue Nov 24, 6:04pm

Tue Nov 24, 5:04pm

Tue Nov 24, 4:05pm

Tue Nov 24, 3:05pm

Tue Nov 24, 2:05pm

Tue Nov 24, 1:05pm

Tue Nov 24, 12:04pm

Tue Nov 24, 11:04am

Tue Nov 24, 10:04am

Tue Nov 24, 9:04am

Tue Nov 24, 8:04am

Tue Nov 24, 7:04am

Tue Nov 24, 6:04am

Tue Nov 24, 5:04am

Tue Nov 24, 4:05am

Tue Nov 24, 3:04am

Tue Nov 24, 2:04am

Tue Nov 24, 1:04am

Tue Nov 24, 12:05am

Mon Nov 23, 11:04pm

Mon Nov 23, 10:04pm

Mon Nov 23, 9:04pm

Mon Nov 23, 8:04pm

Mon Nov 23, 7:04pm

Mon Nov 23, 6:04pm

Mon Nov 23, 4:04pm

Mon Nov 23, 3:04pm

Mon Nov 23, 2:04pm

Mon Nov 23, 1:04pm

Mon Nov 23, 12:04pm

Mon Nov 23, 11:04am

Mon Nov 23, 10:04am

Mon Nov 23, 9:04am

Mon Nov 23, 8:05am

Mon Nov 23, 7:04am

Mon Nov 23, 6:04am

Mon Nov 23, 5:04am

Mon Nov 23, 4:04am

Mon Nov 23, 3:04am

Mon Nov 23, 2:04am

Mon Nov 23, 1:04am

Mon Nov 23, 12:05am

Sun Nov 22, 11:04pm

Sun Nov 22, 10:04pm

Sun Nov 22, 9:04pm

Sun Nov 22, 8:05pm

Sun Nov 22, 7:04pm

Sun Nov 22, 6:04pm

Sun Nov 22, 5:04pm

Sun Nov 22, 4:04pm

Sun Nov 22, 3:04pm

Sun Nov 22, 2:04pm

Sun Nov 22, 1:05pm

Sun Nov 22, 12:04pm

Sun Nov 22, 11:04am

Sun Nov 22, 10:05am

Sun Nov 22, 9:04am

Sun Nov 22, 8:04am

Sun Nov 22, 7:04am

Sun Nov 22, 6:04am

Sun Nov 22, 5:04am

Sun Nov 22, 4:04am

Sun Nov 22, 3:04am

Sun Nov 22, 2:04am

Sun Nov 22, 1:04am

Sun Nov 22, 12:04am

Sat Nov 21, 11:04pm

Sat Nov 21, 10:04pm

Sat Nov 21, 9:04pm

Sat Nov 21, 8:05pm

Sat Nov 21, 7:04pm

Sat Nov 21, 6:04pm

Sat Nov 21, 5:04pm

Sat Nov 21, 4:05pm

Sat Nov 21, 3:04pm

Sat Nov 21, 2:04pm

Sat Nov 21, 1:05pm

Sat Nov 21, 12:04pm

Sat Nov 21, 11:04am

Sat Nov 21, 10:04am

Sat Nov 21, 9:04am

Sat Nov 21, 8:04am

Sat Nov 21, 7:04am

Sat Nov 21, 6:04am

Sat Nov 21, 5:04am

Sat Nov 21, 4:04am

Sat Nov 21, 3:04am

Sat Nov 21, 2:04am

Sat Nov 21, 1:04am

Sat Nov 21, 12:04am

Fri Nov 20, 11:04pm

Fri Nov 20, 10:04pm

Fri Nov 20, 9:04pm

Fri Nov 20, 8:04pm

Fri Nov 20, 7:04pm

Fri Nov 20, 6:04pm

Fri Nov 20, 5:04pm

Fri Nov 20, 4:05pm

Fri Nov 20, 3:05pm

Fri Nov 20, 2:04pm

Fri Nov 20, 1:04pm

Fri Nov 20, 12:04pm

Fri Nov 20, 11:04am

Fri Nov 20, 10:04am

Fri Nov 20, 9:04am

Fri Nov 20, 8:04am

Fri Nov 20, 7:04am

Fri Nov 20, 6:04am

Fri Nov 20, 5:04am

Fri Nov 20, 4:04am

Fri Nov 20, 3:04am

Meta data:

ID: 071e910a-ce84-4963-93a0-f41e3ea2aa59
Link: https://api.weather.gov/products/071e910a-ce84-4963-93a0-f41e3ea2aa59